Time,TemperatureF,DewpointF,PressureIn,WindDirection,WindDirectionDegrees,WindSpeedMPH,WindSpeedGustMPH,Humidity,HourlyPrecipIn,Conditions,Clouds,dailyrainin,SoftwareType,DateUTC
2013-03-12 00:03:00,15.5,14.1,29.90,South,185,0.0,0.0,94,0.00,,,0.00,Wunderground v.1.15,2013-03-12 05:03:00,
2013-03-12 00:08:00,15.7,14.3,29.90,South,185,0.0,0.0,94,0.00,,,0.00,Wunderground v.1.15,2013-03-12 05:08:00,
2013-03-12 00:13:00,16.0,14.6,29.90,South,185,0.0,0.0,94,0.00,,,0.00,Wunderground v.1.15,2013-03-12 05:13:00,
2013-03-12 00:18:00,16.2,14.5,29.90,South,185,0.0,0.0,93,0.00,,,0.00,Wunderground v.1.15,2013-03-12 05:18:00,
2013-03-12 00:23:00,16.4,14.7,29.90,South,185,0.0,0.0,93,0.00,,,0.00,Wunderground v.1.15,2013-03-12 05:23:00,
2013-03-12 00:28:00,16.5,14.6,29.90,South,185,0.0,0.0,92,0.00,,,0.00,Wunderground v.1.15,2013-03-12 05:28:00,
2013-03-12 00:33:00,16.6,14.7,29.90,South,185,0.0,0.0,92,0.00,,,0.00,Wunderground v.1.15,2013-03-12 05:33:00,
2013-03-12 00:38:00,16.8,14.9,29.90,South,185,0.0,0.0,92,0.00,,,0.00,Wunderground v.1.15,2013-03-12 05:38:00,
2013-03-12 00:43:00,17.0,15.1,29.90,South,185,0.0,0.0,92,0.00,,,0.00,Wunderground v.1.15,2013-03-12 05:43:00,
2013-03-12 00:49:00,17.0,15.1,29.90,South,185,0.0,0.0,92,0.00,,,0.00,Wunderground v.1.15,2013-03-12 05:49:00,
2013-03-12 00:54:00,17.0,15.1,29.90,South,185,0.0,0.0,92,0.00,,,0.00,Wunderground v.1.15,2013-03-12 05:54:00,
2013-03-12 00:59:00,16.9,15.0,29.90,South,185,0.0,0.0,92,0.00,,,0.00,Wunderground v.1.15,2013-03-12 05:59:00,
2013-03-12 01:04:00,16.9,15.0,29.90,South,185,0.0,0.0,92,0.00,,,0.00,Wunderground v.1.15,2013-03-12 06:04:00,
2013-03-12 01:09:00,17.0,15.1,29.90,South,185,0.0,0.0,92,0.00,,,0.00,Wunderground v.1.15,2013-03-12 06:09:00,
2013-03-12 01:15:00,17.0,14.8,29.90,South,185,0.0,0.0,91,0.00,,,0.00,Wunderground v.1.15,2013-03-12 06:15:00,
2013-03-12 01:20:00,17.1,14.9,29.90,South,185,0.0,0.0,91,0.00,,,0.00,Wunderground v.1.15,2013-03-12 06:20:00,
2013-03-12 01:25:00,17.1,14.9,29.90,South,185,0.0,0.0,91,0.00,,,0.00,Wunderground v.1.15,2013-03-12 06:25:00,
2013-03-12 01:30:00,17.2,15.0,29.90,South,185,0.0,0.0,91,0.00,,,0.00,Wunderground v.1.15,2013-03-12 06:30:00,
2013-03-12 01:36:00,17.2,15.0,29.90,South,185,0.0,0.0,91,0.00,,,0.00,Wunderground v.1.15,2013-03-12 06:36:00,
2013-03-12 01:41:00,17.3,14.9,29.90,South,185,0.0,0.0,90,0.00,,,0.00,Wunderground v.1.15,2013-03-12 06:41:00,
2013-03-12 01:47:00,17.3,14.9,29.90,South,185,0.0,0.0,90,0.00,,,0.00,Wunderground v.1.15,2013-03-12 06:47:00,
2013-03-12 01:52:00,17.2,14.8,29.90,South,185,0.0,0.0,90,0.00,,,0.00,Wunderground v.1.15,2013-03-12 06:52:00,
2013-03-12 01:57:00,17.0,14.6,29.90,South,185,0.0,0.0,90,0.00,,,0.00,Wunderground v.1.15,2013-03-12 06:57:00,
2013-03-12 02:03:00,16.7,14.3,29.90,South,185,0.0,0.0,90,0.00,,,0.00,Wunderground v.1.15,2013-03-12 07:03:00,
2013-03-12 02:08:00,16.4,14.0,29.90,South,185,0.0,0.0,90,0.00,,,0.00,Wunderground v.1.15,2013-03-12 07:08:00,
2013-03-12 02:13:00,16.2,13.8,29.91,South,185,0.0,0.0,90,0.00,,,0.00,Wunderground v.1.15,2013-03-12 07:13:00,
2013-03-12 02:19:00,16.0,13.8,29.91,South,185,0.0,0.0,91,0.00,,,0.00,Wunderground v.1.15,2013-03-12 07:19:00,
2013-03-12 02:24:00,15.8,13.6,29.91,South,185,0.0,0.0,91,0.00,,,0.00,Wunderground v.1.15,2013-03-12 07:24:00,
2013-03-12 02:29:00,15.6,13.4,29.91,South,185,0.0,0.0,91,0.00,,,0.00,Wunderground v.1.15,2013-03-12 07:29:00,
2013-03-12 02:34:00,15.5,13.3,29.91,South,185,0.0,0.0,91,0.00,,,0.00,Wunderground v.1.15,2013-03-12 07:34:00,
2013-03-12 02:39:00,15.5,13.3,29.91,South,185,0.0,0.0,91,0.00,,,0.00,Wunderground v.1.15,2013-03-12 07:39:00,
2013-03-12 02:44:00,15.3,13.1,29.91,South,185,0.0,0.0,91,0.00,,,0.00,Wunderground v.1.15,2013-03-12 07:44:00,
2013-03-12 02:50:00,15.1,12.9,29.91,South,185,0.0,0.0,91,0.00,,,0.00,Wunderground v.1.15,2013-03-12 07:50:00,
2013-03-12 02:55:00,14.9,13.0,29.91,South,185,0.0,0.0,92,0.00,,,0.00,Wunderground v.1.15,2013-03-12 07:55:00,
2013-03-12 03:00:00,14.5,12.4,29.91,South,185,0.0,0.0,91,0.00,,,0.00,Wunderground v.1.15,2013-03-12 08:00:00,
2013-03-12 03:06:00,14.2,12.3,29.91,South,185,0.0,0.0,92,0.00,,,0.00,Wunderground v.1.15,2013-03-12 08:06:00,
2013-03-12 03:12:00,14.0,12.1,29.91,South,185,0.0,0.0,92,0.00,,,0.00,Wunderground v.1.15,2013-03-12 08:12:00,
2013-03-12 03:17:00,14.0,12.1,29.91,South,185,0.0,0.0,92,0.00,,,0.00,Wunderground v.1.15,2013-03-12 08:17:00,
2013-03-12 03:23:00,13.9,12.0,29.91,South,185,0.0,0.0,92,0.00,,,0.00,Wunderground v.1.15,2013-03-12 08:23:00,
2013-03-12 03:28:00,13.9,12.0,29.91,South,185,0.0,0.0,92,0.00,,,0.00,Wunderground v.1.15,2013-03-12 08:28:00,
2013-03-12 03:33:00,13.9,12.0,29.91,South,185,0.0,0.0,92,0.00,,,0.00,Wunderground v.1.15,2013-03-12 08:33:00,
2013-03-12 03:38:00,13.8,11.9,29.91,South,185,0.0,0.0,92,0.00,,,0.00,Wunderground v.1.15,2013-03-12 08:38:00,
2013-03-12 03:44:00,13.9,12.0,29.91,South,185,0.0,0.0,92,0.00,,,0.00,Wunderground v.1.15,2013-03-12 08:44:00,
2013-03-12 03:49:00,14.0,12.1,29.91,South,185,0.0,0.0,92,0.00,,,0.00,Wunderground v.1.15,2013-03-12 08:49:00,
2013-03-12 03:56:00,13.9,11.8,29.91,South,185,0.0,0.0,91,0.00,,,0.00,Wunderground v.1.15,2013-03-12 08:56:00,
2013-03-12 04:02:00,13.8,11.7,29.91,South,185,0.0,0.0,91,0.00,,,0.00,Wunderground v.1.15,2013-03-12 09:02:00,
2013-03-12 04:08:00,13.5,11.6,29.91,South,185,0.0,0.0,92,0.00,,,0.00,Wunderground v.1.15,2013-03-12 09:08:00,
2013-03-12 04:13:00,13.4,11.5,29.91,South,185,0.0,0.0,92,0.00,,,0.00,Wunderground v.1.15,2013-03-12 09:13:00,
2013-03-12 04:18:00,13.5,11.6,29.92,South,182,0.0,0.0,92,0.00,,,0.00,Wunderground v.1.15,2013-03-12 09:18:00,
2013-03-12 04:24:00,13.4,11.3,29.92,South,182,0.0,0.0,91,0.00,,,0.00,Wunderground v.1.15,2013-03-12 09:24:00,
2013-03-12 04:30:00,13.4,11.3,29.92,SSE,166,0.0,0.0,91,0.00,,,0.00,Wunderground v.1.15,2013-03-12 09:30:00,
2013-03-12 04:36:00,13.6,11.5,29.92,South,179,0.0,0.0,91,0.00,,,0.00,Wunderground v.1.15,2013-03-12 09:36:00,
2013-03-12 04:42:00,13.6,11.5,29.93,South,180,0.0,0.0,91,0.00,,,0.00,Wunderground v.1.15,2013-03-12 09:42:00,
2013-03-12 04:47:00,13.5,11.1,29.93,South,180,0.0,0.0,90,0.00,,,0.00,Wunderground v.1.15,2013-03-12 09:47:00,
2013-03-12 04:53:00,13.3,11.2,29.93,South,181,0.0,0.0,91,0.00,,,0.00,Wunderground v.1.15,2013-03-12 09:53:00,
2013-03-12 04:58:00,13.3,11.2,29.93,South,180,0.0,0.0,91,0.00,,,0.00,Wunderground v.1.15,2013-03-12 09:58:00,
2013-03-12 05:04:00,13.1,10.7,29.93,South,181,0.0,0.0,90,0.00,,,0.00,Wunderground v.1.15,2013-03-12 10:04:00,
2013-03-12 05:09:00,12.8,10.7,29.93,South,184,0.0,0.0,91,0.00,,,0.00,Wunderground v.1.15,2013-03-12 10:09:00,
2013-03-12 05:15:00,12.8,10.9,29.94,South,184,0.0,0.0,92,0.00,,,0.00,Wunderground v.1.15,2013-03-12 10:15:00,
2013-03-12 05:20:00,12.8,10.9,29.94,South,184,0.0,0.0,92,0.00,,,0.00,Wunderground v.1.15,2013-03-12 10:20:00,
2013-03-12 05:26:00,12.8,10.9,29.94,South,184,0.0,0.0,92,0.00,,,0.00,Wunderground v.1.15,2013-03-12 10:26:00,
2013-03-12 05:31:00,13.0,11.1,29.95,South,184,0.0,0.0,92,0.00,,,0.00,Wunderground v.1.15,2013-03-12 10:31:00,
2013-03-12 05:37:00,13.2,11.1,29.95,SSW,196,0.0,0.0,91,0.00,,,0.00,Wunderground v.1.15,2013-03-12 10:37:00,
2013-03-12 05:42:00,13.4,11.3,29.95,SSE,164,0.0,0.0,91,0.00,,,0.00,Wunderground v.1.15,2013-03-12 10:42:00,
2013-03-12 05:48:00,13.8,11.7,29.95,SSW,203,0.0,0.0,91,0.00,,,0.00,Wunderground v.1.15,2013-03-12 10:48:00,
2013-03-12 05:54:00,14.1,11.7,29.95,SE,144,0.0,0.0,90,0.00,,,0.00,Wunderground v.1.15,2013-03-12 10:54:00,
2013-03-12 05:59:00,14.4,12.0,29.95,South,180,0.0,0.0,90,0.00,,,0.00,Wunderground v.1.15,2013-03-12 10:59:00,
2013-03-12 06:05:00,14.6,12.2,29.95,South,178,0.0,0.0,90,0.00,,,0.00,Wunderground v.1.15,2013-03-12 11:05:00,
2013-03-12 06:10:00,14.6,11.9,29.96,South,175,0.0,0.0,89,0.00,,,0.00,Wunderground v.1.15,2013-03-12 11:10:00,
2013-03-12 06:16:00,14.5,11.9,29.96,SSW,194,0.0,0.0,89,0.00,,,0.00,Wunderground v.1.15,2013-03-12 11:16:00,
2013-03-12 06:22:00,14.6,11.9,29.96,South,173,0.0,0.0,89,0.00,,,0.00,Wunderground v.1.15,2013-03-12 11:22:00,
2013-03-12 06:27:00,14.8,12.1,29.96,South,182,0.0,0.0,89,0.00,,,0.00,Wunderground v.1.15,2013-03-12 11:27:00,
2013-03-12 06:32:00,14.8,12.1,29.97,SSW,192,0.0,0.0,89,0.00,,,0.00,Wunderground v.1.15,2013-03-12 11:32:00,
2013-03-12 06:37:00,14.9,12.2,29.97,South,180,0.0,0.0,89,0.00,,,0.00,Wunderground v.1.15,2013-03-12 11:37:00,
2013-03-12 06:43:00,15.2,12.5,29.97,South,184,0.0,0.0,89,0.00,,,0.00,Wunderground v.1.15,2013-03-12 11:43:00,
2013-03-12 06:48:00,15.3,12.4,29.97,South,169,0.0,0.0,88,0.00,,,0.00,Wunderground v.1.15,2013-03-12 11:48:00,
2013-03-12 06:54:00,15.3,12.4,29.97,South,182,0.0,0.0,88,0.00,,,0.00,Wunderground v.1.15,2013-03-12 11:54:00,
2013-03-12 06:59:00,15.4,12.5,29.97,SW,225,0.0,0.0,88,0.00,,,0.00,Wunderground v.1.15,2013-03-12 11:59:00,
2013-03-12 07:05:00,15.3,12.4,29.97,South,186,0.0,0.0,88,0.00,,,0.00,Wunderground v.1.15,2013-03-12 12:05:00,
2013-03-12 07:10:00,15.3,12.4,29.97,South,186,0.0,0.0,88,0.00,,,0.00,Wunderground v.1.15,2013-03-12 12:10:00,
2013-03-12 07:15:00,15.3,12.4,29.98,South,177,0.0,0.0,88,0.00,,,0.00,Wunderground v.1.15,2013-03-12 12:15:00,
2013-03-12 07:21:00,15.2,12.3,29.98,South,173,0.0,0.0,88,0.00,,,0.00,Wunderground v.1.15,2013-03-12 12:21:00,
2013-03-12 07:27:00,15.1,12.4,29.98,South,175,0.0,0.0,89,0.00,,,0.00,Wunderground v.1.15,2013-03-12 12:27:00,
2013-03-12 07:32:00,15.1,12.4,29.98,SSW,192,0.0,0.0,89,0.00,,,0.00,Wunderground v.1.15,2013-03-12 12:32:00,
2013-03-12 07:37:00,15.0,12.3,29.98,South,184,0.0,0.0,89,0.00,,,0.00,Wunderground v.1.15,2013-03-12 12:37:00,
2013-03-12 07:43:00,14.9,12.2,29.98,South,188,0.0,0.0,89,0.00,,,0.00,Wunderground v.1.15,2013-03-12 12:43:00,
2013-03-12 07:49:00,14.7,12.0,29.98,South,182,0.0,0.0,89,0.00,,,0.00,Wunderground v.1.15,2013-03-12 12:49:00,
2013-03-12 07:54:00,14.7,12.3,29.98,South,184,0.0,0.0,90,0.00,,,0.00,Wunderground v.1.15,2013-03-12 12:54:00,
2013-03-12 08:00:00,14.6,12.2,29.98,SSE,154,0.0,0.0,90,0.00,,,0.00,Wunderground v.1.15,2013-03-12 13:00:00,
2013-03-12 08:07:00,14.7,12.3,29.99,SSE,162,0.0,0.0,90,0.00,,,0.00,Wunderground v.1.15,2013-03-12 13:07:00,
2013-03-12 08:12:00,14.9,12.5,29.99,SSW,208,0.0,0.0,90,0.00,,,0.00,Wunderground v.1.15,2013-03-12 13:12:00,
2013-03-12 08:17:00,15.0,12.6,29.99,SSE,163,0.0,0.0,90,0.00,,,0.00,Wunderground v.1.15,2013-03-12 13:17:00,
2013-03-12 08:23:00,15.4,13.0,29.99,SSW,208,0.0,0.0,90,0.00,,,0.00,Wunderground v.1.15,2013-03-12 13:23:00,
2013-03-12 08:29:00,15.8,13.4,29.99,South,190,0.0,0.0,90,0.00,,,0.00,Wunderground v.1.15,2013-03-12 13:29:00,
2013-03-12 08:34:00,16.1,13.4,29.99,SE,142,0.0,0.0,89,0.00,,,0.00,Wunderground v.1.15,2013-03-12 13:34:00,
2013-03-12 08:40:00,16.6,13.9,30.00,SSW,197,0.0,0.0,89,0.00,,,0.00,Wunderground v.1.15,2013-03-12 13:40:00,
2013-03-12 08:47:00,17.3,14.4,30.00,South,181,0.0,0.0,88,0.00,,,0.00,Wunderground v.1.15,2013-03-12 13:47:00,
2013-03-12 08:52:00,17.9,14.7,30.00,SE,137,0.0,0.0,87,0.00,,,0.00,Wunderground v.1.15,2013-03-12 13:52:00,
2013-03-12 08:57:00,18.2,15.0,30.00,SSW,198,0.0,0.0,87,0.00,,,0.00,Wunderground v.1.15,2013-03-12 13:57:00,
2013-03-12 09:03:00,18.5,15.0,30.00,SSW,199,0.0,0.0,86,0.00,,,0.00,Wunderground v.1.15,2013-03-12 14:03:00,
2013-03-12 09:09:00,18.7,15.2,30.00,SSE,147,0.0,0.0,86,0.00,,,0.00,Wunderground v.1.15,2013-03-12 14:09:00,
2013-03-12 09:14:00,18.8,15.0,30.01,South,179,0.0,0.0,85,0.00,,,0.00,Wunderground v.1.15,2013-03-12 14:14:00,
2013-03-12 09:19:00,18.7,14.9,30.01,SSW,192,0.0,0.0,85,0.00,,,0.00,Wunderground v.1.15,2013-03-12 14:19:00,
2013-03-12 09:24:00,18.8,15.0,30.01,South,187,0.0,0.0,85,0.00,,,0.00,Wunderground v.1.15,2013-03-12 14:24:00,
2013-03-12 09:30:00,19.1,15.1,30.01,WNW,298,0.0,0.0,84,0.00,,,0.00,Wunderground v.1.15,2013-03-12 14:30:00,
2013-03-12 09:35:00,19.5,15.2,30.01,South,169,0.0,0.0,83,0.00,,,0.00,Wunderground v.1.15,2013-03-12 14:35:00,
2013-03-12 09:41:00,20.2,15.9,30.01,SSE,167,0.0,0.0,83,0.00,,,0.00,Wunderground v.1.15,2013-03-12 14:41:00,
2013-03-12 09:47:00,20.7,15.8,30.02,ESE,106,0.0,0.0,81,0.00,,,0.00,Wunderground v.1.15,2013-03-12 14:47:00,
2013-03-12 09:52:00,21.1,16.5,30.02,SW,233,0.0,0.0,82,0.00,,,0.00,Wunderground v.1.15,2013-03-12 14:52:00,
2013-03-12 09:57:00,21.3,16.4,30.02,SW,218,0.0,0.0,81,0.00,,,0.00,Wunderground v.1.15,2013-03-12 14:57:00,
2013-03-12 10:03:00,21.5,16.3,30.02,WNW,300,0.0,0.0,80,0.00,,,0.00,Wunderground v.1.15,2013-03-12 15:03:00,
2013-03-12 10:08:00,21.8,16.6,30.02,SSW,205,0.0,0.0,80,0.00,,,0.00,Wunderground v.1.15,2013-03-12 15:08:00,
2013-03-12 10:14:00,22.4,16.9,30.02,South,180,0.0,0.0,79,0.00,,,0.00,Wunderground v.1.15,2013-03-12 15:14:00,
2013-03-12 10:19:00,22.6,17.1,30.03,South,184,0.0,0.0,79,0.00,,,0.00,Wunderground v.1.15,2013-03-12 15:19:00,
2013-03-12 10:24:00,22.9,16.8,30.03,SW,234,0.0,0.0,77,0.00,,,0.00,Wunderground v.1.15,2013-03-12 15:24:00,
2013-03-12 10:30:00,23.2,17.4,30.03,WSW,252,0.0,0.0,78,0.00,,,0.00,Wunderground v.1.15,2013-03-12 15:30:00,
2013-03-12 10:35:00,23.4,17.3,30.03,SSW,197,0.0,0.0,77,0.00,,,0.00,Wunderground v.1.15,2013-03-12 15:35:00,
2013-03-12 10:40:00,23.6,17.4,30.03,SSW,199,0.0,0.0,77,0.00,,,0.00,Wunderground v.1.15,2013-03-12 15:40:00,
2013-03-12 10:45:00,23.8,17.0,30.03,WSW,257,0.0,0.0,75,0.00,,,0.00,Wunderground v.1.15,2013-03-12 15:45:00,
2013-03-12 10:51:00,24.0,17.5,30.03,WNW,286,0.0,0.0,76,0.00,,,0.00,Wunderground v.1.15,2013-03-12 15:51:00,
2013-03-12 10:57:00,24.1,17.3,30.04,WNW,282,0.0,0.0,75,0.00,,,0.00,Wunderground v.1.15,2013-03-12 15:57:00,
2013-03-12 11:03:00,24.2,17.4,30.04,WSW,241,0.0,0.0,75,0.00,,,0.00,Wunderground v.1.15,2013-03-12 16:03:00,
2013-03-12 11:08:00,24.5,18.3,30.04,NNE,14,0.0,0.0,77,0.00,,,0.00,Wunderground v.1.15,2013-03-12 16:08:00,
2013-03-12 11:14:00,24.3,17.5,30.04,WNW,296,0.0,0.0,75,0.00,,,0.00,Wunderground v.1.15,2013-03-12 16:14:00,
2013-03-12 11:19:00,24.0,17.5,30.04,SW,234,0.0,0.0,76,0.00,,,0.00,Wunderground v.1.15,2013-03-12 16:19:00,
2013-03-12 11:24:00,23.9,17.4,30.04,West,278,0.0,0.0,76,0.00,,,0.00,Wunderground v.1.15,2013-03-12 16:24:00,
2013-03-12 11:30:00,24.0,17.5,30.04,West,270,0.0,0.0,76,0.00,,,0.00,Wunderground v.1.15,2013-03-12 16:30:00,
2013-03-12 11:36:00,24.5,17.4,30.04,SW,227,0.0,0.0,74,0.00,,,0.00,Wunderground v.1.15,2013-03-12 16:36:00,
2013-03-12 11:41:00,24.4,16.7,30.05,West,269,0.0,0.0,72,0.00,,,0.00,Wunderground v.1.15,2013-03-12 16:41:00,
2013-03-12 11:47:00,24.5,16.8,30.05,West,280,0.0,0.0,72,0.00,,,0.00,Wunderground v.1.15,2013-03-12 16:47:00,
2013-03-12 11:53:00,24.8,16.7,30.05,NW,305,0.0,0.0,71,0.00,,,0.00,Wunderground v.1.15,2013-03-12 16:53:00,
2013-03-12 11:59:00,25.3,17.2,30.05,WNW,293,0.0,0.0,71,0.00,,,0.00,Wunderground v.1.15,2013-03-12 16:59:00,
2013-03-12 12:05:00,25.7,16.9,30.05,WNW,291,0.0,0.0,69,0.00,,,0.00,Wunderground v.1.15,2013-03-12 17:05:00,
2013-03-12 12:10:00,25.4,16.3,30.05,WNW,298,0.0,0.0,68,0.00,,,0.00,Wunderground v.1.15,2013-03-12 17:10:00,
2013-03-12 12:16:00,25.5,17.1,30.06,SW,230,0.0,0.0,70,0.00,,,0.00,Wunderground v.1.15,2013-03-12 17:16:00,
2013-03-12 12:22:00,25.1,16.4,30.06,NNW,335,0.0,0.0,69,0.00,,,0.00,Wunderground v.1.15,2013-03-12 17:22:00,
2013-03-12 12:27:00,24.8,16.4,30.06,WNW,287,0.0,0.0,70,0.00,,,0.00,Wunderground v.1.15,2013-03-12 17:27:00,
2013-03-12 12:33:00,24.7,15.3,30.06,North,7,0.0,0.0,67,0.00,,,0.00,Wunderground v.1.15,2013-03-12 17:33:00,
2013-03-12 12:39:00,25.0,15.2,30.06,WNW,300,1.0,4.0,66,0.00,,,0.00,Wunderground v.1.15,2013-03-12 17:39:00,
2013-03-12 12:44:00,25.7,16.3,30.06,WNW,287,2.0,4.0,67,0.00,,,0.00,Wunderground v.1.15,2013-03-12 17:44:00,
2013-03-12 12:50:00,26.4,15.9,30.06,WSW,243,3.0,5.0,64,0.00,,,0.00,Wunderground v.1.15,2013-03-12 17:50:00,
2013-03-12 12:55:00,26.5,15.2,30.07,West,261,4.0,5.0,62,0.00,,,0.00,Wunderground v.1.15,2013-03-12 17:55:00,
2013-03-12 13:00:00,26.4,15.5,30.07,West,265,4.0,9.0,63,0.00,,,0.00,Wunderground v.1.15,2013-03-12 18:00:00,
2013-03-12 13:05:00,26.6,15.3,30.07,WSW,244,4.0,9.0,62,0.00,,,0.00,Wunderground v.1.15,2013-03-12 18:05:00,
2013-03-12 13:11:00,26.8,14.4,30.07,NW,308,4.0,9.0,59,0.00,,,0.00,Wunderground v.1.15,2013-03-12 18:11:00,
2013-03-12 13:17:00,26.4,13.6,30.07,WSW,254,5.0,14.0,58,0.00,,,0.00,Wunderground v.1.15,2013-03-12 18:17:00,
2013-03-12 13:22:00,26.5,14.1,30.07,WNW,295,6.0,9.0,59,0.00,,,0.00,Wunderground v.1.15,2013-03-12 18:22:00,
2013-03-12 13:27:00,26.5,14.1,30.07,West,270,5.0,9.0,59,0.00,,,0.00,Wunderground v.1.15,2013-03-12 18:27:00,
2013-03-12 13:33:00,26.3,13.1,30.07,West,281,5.0,9.0,57,0.00,,,0.00,Wunderground v.1.15,2013-03-12 18:33:00,
2013-03-12 13:38:00,26.6,13.4,30.07,WSW,258,5.0,9.0,57,0.00,,,0.00,Wunderground v.1.15,2013-03-12 18:38:00,
2013-03-12 13:43:00,27.1,12.6,30.08,WSW,254,4.0,9.0,54,0.00,,,0.00,Wunderground v.1.15,2013-03-12 18:43:00,
2013-03-12 13:49:00,27.1,12.6,30.07,WSW,253,5.0,9.0,54,0.00,,,0.00,Wunderground v.1.15,2013-03-12 18:49:00,
2013-03-12 13:54:00,27.4,12.5,30.07,WSW,239,5.0,9.0,53,0.00,,,0.00,Wunderground v.1.15,2013-03-12 18:54:00,
2013-03-12 13:59:00,27.1,12.2,30.07,WSW,237,5.0,11.0,53,0.00,,,0.00,Wunderground v.1.15,2013-03-12 18:59:00,
2013-03-12 14:04:00,27.6,13.5,30.07,WSW,241,5.0,10.0,55,0.00,,,0.00,Wunderground v.1.15,2013-03-12 19:04:00,
2013-03-12 14:09:00,27.7,13.6,30.07,WNW,289,5.0,10.0,55,0.00,,,0.00,Wunderground v.1.15,2013-03-12 19:09:00,
2013-03-12 14:15:00,27.7,12.8,30.08,West,281,5.0,10.0,53,0.00,,,0.00,Wunderground v.1.15,2013-03-12 19:15:00,
2013-03-12 14:21:00,27.3,12.4,30.08,SW,234,5.0,10.0,53,0.00,,,0.00,Wunderground v.1.15,2013-03-12 19:21:00,
2013-03-12 14:26:00,27.3,12.8,30.08,West,267,5.0,10.0,54,0.00,,,0.00,Wunderground v.1.15,2013-03-12 19:26:00,
2013-03-12 14:32:00,27.9,12.5,30.08,WNW,294,4.0,10.0,52,0.00,,,0.00,Wunderground v.1.15,2013-03-12 19:32:00,
2013-03-12 14:37:00,27.6,10.9,30.08,SW,226,5.0,11.0,49,0.00,,,0.00,Wunderground v.1.15,2013-03-12 19:37:00,
2013-03-12 14:42:00,27.3,10.2,30.08,WNW,301,6.0,11.0,48,0.00,,,0.00,Wunderground v.1.15,2013-03-12 19:42:00,
2013-03-12 14:47:00,27.2,11.4,30.08,North,355,5.0,11.0,51,0.00,,,0.00,Wunderground v.1.15,2013-03-12 19:47:00,
2013-03-12 14:52:00,27.6,11.4,30.08,NW,307,4.0,10.0,50,0.00,,,0.00,Wunderground v.1.15,2013-03-12 19:52:00,
2013-03-12 14:58:00,28.1,11.4,30.09,West,265,4.0,10.0,49,0.00,,,0.00,Wunderground v.1.15,2013-03-12 19:58:00,
2013-03-12 15:03:00,27.9,10.2,30.09,WSW,247,5.0,11.0,47,0.00,,,0.00,Wunderground v.1.15,2013-03-12 20:03:00,
2013-03-12 15:09:00,28.0,11.7,30.09,WSW,245,5.0,11.0,50,0.00,,,0.00,Wunderground v.1.15,2013-03-12 20:09:00,
2013-03-12 15:14:00,27.7,11.9,30.09,West,270,5.0,11.0,51,0.00,,,0.00,Wunderground v.1.15,2013-03-12 20:14:00,
2013-03-12 15:19:00,27.2,11.0,30.09,West,270,5.0,11.0,50,0.00,,,0.00,Wunderground v.1.15,2013-03-12 20:19:00,
2013-03-12 15:25:00,27.1,10.4,30.10,WSW,253,5.0,11.0,49,0.00,,,0.00,Wunderground v.1.15,2013-03-12 20:25:00,
2013-03-12 15:30:00,26.8,10.2,30.10,West,267,4.0,11.0,49,0.00,,,0.00,Wunderground v.1.15,2013-03-12 20:30:00,
2013-03-12 15:36:00,26.4,10.3,30.10,WSW,256,6.0,11.0,50,0.00,,,0.00,Wunderground v.1.15,2013-03-12 20:36:00,
2013-03-12 15:42:00,26.3,11.5,30.10,WNW,296,6.0,11.0,53,0.00,,,0.00,Wunderground v.1.15,2013-03-12 20:42:00,
2013-03-12 15:48:00,26.8,11.9,30.11,West,272,5.0,11.0,53,0.00,,,0.00,Wunderground v.1.15,2013-03-12 20:48:00,
2013-03-12 15:54:00,27.0,11.3,30.11,WNW,282,4.0,11.0,51,0.00,,,0.00,Wunderground v.1.15,2013-03-12 20:54:00,
2013-03-12 16:00:00,26.8,11.5,30.11,WSW,249,4.0,4.0,52,0.00,,,0.00,Wunderground v.1.15,2013-03-12 21:00:00,
2013-03-12 16:06:00,27.0,10.8,30.11,WSW,243,3.0,10.0,50,0.00,,,0.00,Wunderground v.1.15,2013-03-12 21:06:00,
2013-03-12 16:11:00,27.2,11.0,30.12,WNW,282,4.0,14.0,50,0.00,,,0.00,Wunderground v.1.15,2013-03-12 21:11:00,
2013-03-12 16:17:00,26.8,10.2,30.12,West,275,6.0,14.0,49,0.00,,,0.00,Wunderground v.1.15,2013-03-12 21:17:00,
2013-03-12 16:23:00,27.0,10.4,30.13,West,272,6.0,7.0,49,0.00,,,0.00,Wunderground v.1.15,2013-03-12 21:23:00,
2013-03-12 16:28:00,27.0,10.4,30.13,WNW,282,5.0,9.0,49,0.00,,,0.00,Wunderground v.1.15,2013-03-12 21:28:00,
2013-03-12 16:34:00,27.0,10.8,30.13,NW,315,5.0,6.0,50,0.00,,,0.00,Wunderground v.1.15,2013-03-12 21:34:00,
2013-03-12 16:39:00,26.8,10.2,30.13,WSW,243,5.0,7.0,49,0.00,,,0.00,Wunderground v.1.15,2013-03-12 21:39:00,
2013-03-12 16:45:00,26.7,10.1,30.14,SW,220,5.0,10.0,49,0.00,,,0.00,Wunderground v.1.15,2013-03-12 21:45:00,
2013-03-12 16:50:00,26.7,10.5,30.14,WNW,282,4.0,4.0,50,0.00,,,0.00,Wunderground v.1.15,2013-03-12 21:50:00,
2013-03-12 16:57:00,26.7,10.5,30.14,WSW,245,4.0,6.0,50,0.00,,,0.00,Wunderground v.1.15,2013-03-12 21:57:00,
2013-03-12 17:03:00,26.9,11.2,30.14,WSW,247,3.0,6.0,51,0.00,,,0.00,Wunderground v.1.15,2013-03-12 22:03:00,
2013-03-12 17:08:00,26.8,11.1,30.14,NW,315,3.0,7.0,51,0.00,,,0.00,Wunderground v.1.15,2013-03-12 22:08:00,
2013-03-12 17:14:00,26.7,10.5,30.14,NW,306,4.0,6.0,50,0.00,,,0.00,Wunderground v.1.15,2013-03-12 22:14:00,
2013-03-12 17:20:00,26.7,10.1,30.15,NW,305,3.0,6.0,49,0.00,,,0.00,Wunderground v.1.15,2013-03-12 22:20:00,
2013-03-12 17:25:00,26.7,10.5,30.15,WNW,294,2.0,6.0,50,0.00,,,0.00,Wunderground v.1.15,2013-03-12 22:25:00,
2013-03-12 17:30:00,26.5,9.9,30.15,NW,308,3.0,3.0,49,0.00,,,0.00,Wunderground v.1.15,2013-03-12 22:30:00,
2013-03-12 17:36:00,26.5,10.3,30.15,NW,307,3.0,12.0,50,0.00,,,0.00,Wunderground v.1.15,2013-03-12 22:36:00,
2013-03-12 17:41:00,26.4,9.3,30.16,NW,310,3.0,6.0,48,0.00,,,0.00,Wunderground v.1.15,2013-03-12 22:41:00,
2013-03-12 17:47:00,26.2,9.2,30.15,West,277,4.0,9.0,48,0.00,,,0.00,Wunderground v.1.15,2013-03-12 22:47:00,
2013-03-12 17:52:00,25.9,8.9,30.16,NW,308,4.0,6.0,48,0.00,,,0.00,Wunderground v.1.15,2013-03-12 22:52:00,
2013-03-12 17:58:00,25.8,9.2,30.16,North,358,5.0,6.0,49,0.00,,,0.00,Wunderground v.1.15,2013-03-12 22:58:00,
2013-03-12 18:03:00,25.7,9.2,30.16,West,270,4.0,10.0,49,0.00,,,0.00,Wunderground v.1.15,2013-03-12 23:03:00,
2013-03-12 18:09:00,25.7,9.2,30.16,WNW,283,3.0,10.0,49,0.00,,,0.00,Wunderground v.1.15,2013-03-12 23:09:00,
2013-03-12 18:14:00,25.6,9.5,30.17,SSW,195,3.0,10.0,50,0.00,,,0.00,Wunderground v.1.15,2013-03-12 23:14:00,
2013-03-12 18:20:00,25.4,9.8,30.17,WSW,258,3.0,3.0,51,0.00,,,0.00,Wunderground v.1.15,2013-03-12 23:20:00,
2013-03-12 18:25:00,25.4,9.3,30.17,WSW,246,3.0,10.0,50,0.00,,,0.00,Wunderground v.1.15,2013-03-12 23:25:00,
2013-03-12 18:30:00,25.3,9.7,30.17,SSW,203,2.0,10.0,51,0.00,,,0.00,Wunderground v.1.15,2013-03-12 23:30:00,
2013-03-12 18:35:00,25.3,9.7,30.17,SW,232,2.0,10.0,51,0.00,,,0.00,Wunderground v.1.15,2013-03-12 23:35:00,
2013-03-12 18:40:00,25.1,9.0,30.17,SSW,194,2.0,2.0,50,0.00,,,0.00,Wunderground v.1.15,2013-03-12 23:40:00,
2013-03-12 18:45:00,25.0,9.4,30.17,NW,319,3.0,10.0,51,0.00,,,0.00,Wunderground v.1.15,2013-03-12 23:45:00,
2013-03-12 18:50:00,24.9,8.9,30.18,West,275,4.0,4.0,50,0.00,,,0.00,Wunderground v.1.15,2013-03-12 23:50:00,
2013-03-12 18:56:00,24.8,9.2,30.18,West,265,4.0,10.0,51,0.00,,,0.00,Wunderground v.1.15,2013-03-12 23:56:00,
2013-03-12 19:02:00,24.6,9.0,30.18,WSW,253,3.0,4.0,51,0.00,,,0.00,Wunderground v.1.15,2013-03-13 00:02:00,
2013-03-12 19:08:00,24.5,9.4,30.19,WSW,244,2.0,8.0,52,0.00,,,0.00,Wunderground v.1.15,2013-03-13 00:08:00,
2013-03-12 19:13:00,24.2,9.5,30.19,SW,229,1.0,4.0,53,0.00,,,0.00,Wunderground v.1.15,2013-03-13 00:13:00,
2013-03-12 19:19:00,24.0,9.3,30.19,WSW,257,1.0,4.0,53,0.00,,,0.00,Wunderground v.1.15,2013-03-13 00:19:00,
2013-03-12 19:25:00,23.8,9.1,30.20,SW,218,1.0,4.0,53,0.00,,,0.00,Wunderground v.1.15,2013-03-13 00:25:00,
2013-03-12 19:30:00,23.7,9.0,30.20,SW,220,2.0,5.0,53,0.00,,,0.00,Wunderground v.1.15,2013-03-13 00:30:00,
2013-03-12 19:36:00,23.5,9.3,30.21,SW,227,2.0,5.0,54,0.00,,,0.00,Wunderground v.1.15,2013-03-13 00:36:00,
2013-03-12 19:42:00,23.3,9.1,30.21,SW,232,2.0,4.0,54,0.00,,,0.00,Wunderground v.1.15,2013-03-13 00:42:00,
2013-03-12 19:47:00,23.2,9.0,30.21,WSW,253,1.0,4.0,54,0.00,,,0.00,Wunderground v.1.15,2013-03-13 00:47:00,
2013-03-12 19:53:00,22.8,9.0,30.21,SSW,196,0.0,4.0,55,0.00,,,0.00,Wunderground v.1.15,2013-03-13 00:53:00,
2013-03-12 19:59:00,22.4,8.7,30.22,WSW,246,0.0,4.0,55,0.00,,,0.00,Wunderground v.1.15,2013-03-13 00:59:00,
2013-03-12 20:04:00,22.0,8.7,30.22,SW,230,0.0,0.0,56,0.00,,,0.00,Wunderground v.1.15,2013-03-13 01:04:00,
2013-03-12 20:10:00,21.7,8.8,30.22,WSW,239,0.0,2.0,57,0.00,,,0.00,Wunderground v.1.15,2013-03-13 01:10:00,
2013-03-12 20:17:00,21.4,8.5,30.23,SW,215,0.0,2.0,57,0.00,,,0.00,Wunderground v.1.15,2013-03-13 01:17:00,
2013-03-12 20:22:00,21.2,8.7,30.23,SW,222,0.0,0.0,58,0.00,,,0.00,Wunderground v.1.15,2013-03-13 01:22:00,
2013-03-12 20:28:00,21.0,8.9,30.23,WSW,253,0.0,0.0,59,0.00,,,0.00,Wunderground v.1.15,2013-03-13 01:28:00,
2013-03-12 20:34:00,20.5,8.4,30.23,WSW,242,0.0,0.0,59,0.00,,,0.00,Wunderground v.1.15,2013-03-13 01:34:00,
2013-03-12 20:39:00,20.0,8.7,30.24,SW,226,0.0,0.0,61,0.00,,,0.00,Wunderground v.1.15,2013-03-13 01:39:00,
2013-03-12 20:45:00,19.3,8.8,30.24,SW,225,0.0,0.0,63,0.00,,,0.00,Wunderground v.1.15,2013-03-13 01:45:00,
2013-03-12 20:51:00,18.5,8.7,30.24,SSW,209,0.0,0.0,65,0.00,,,0.00,Wunderground v.1.15,2013-03-13 01:51:00,
2013-03-12 20:57:00,18.2,8.4,30.25,SSW,208,0.0,0.0,65,0.00,,,0.00,Wunderground v.1.15,2013-03-13 01:57:00,
2013-03-12 21:02:00,18.1,8.6,30.25,SSW,199,0.0,0.0,66,0.00,,,0.00,Wunderground v.1.15,2013-03-13 02:02:00,
2013-03-12 21:07:00,18.2,9.1,30.25,SW,215,0.0,0.0,67,0.00,,,0.00,Wunderground v.1.15,2013-03-13 02:07:00,
2013-03-12 21:13:00,18.7,10.2,30.25,SW,219,0.0,2.0,69,0.00,,,0.00,Wunderground v.1.15,2013-03-13 02:13:00,
2013-03-12 21:18:00,19.4,10.9,30.26,SW,225,1.0,2.0,69,0.00,,,0.00,Wunderground v.1.15,2013-03-13 02:18:00,
2013-03-12 21:23:00,19.5,11.3,30.26,WSW,253,1.0,1.0,70,0.00,,,0.00,Wunderground v.1.15,2013-03-13 02:23:00,
2013-03-12 21:29:00,19.3,11.4,30.26,SSW,204,0.0,1.0,71,0.00,,,0.00,Wunderground v.1.15,2013-03-13 02:29:00,
2013-03-12 21:35:00,19.4,12.2,30.26,SW,214,1.0,4.0,73,0.00,,,0.00,Wunderground v.1.15,2013-03-13 02:35:00,
2013-03-12 21:40:00,19.5,12.6,30.26,SW,236,1.0,1.0,74,0.00,,,0.00,Wunderground v.1.15,2013-03-13 02:40:00,
2013-03-12 21:46:00,19.5,12.9,30.27,South,189,1.0,2.0,75,0.00,,,0.00,Wunderground v.1.15,2013-03-13 02:46:00,
2013-03-12 21:52:00,19.5,12.9,30.27,SSW,212,0.0,1.0,75,0.00,,,0.00,Wunderground v.1.15,2013-03-13 02:52:00,
2013-03-12 21:57:00,19.3,13.0,30.27,SSW,203,1.0,4.0,76,0.00,,,0.00,Wunderground v.1.15,2013-03-13 02:57:00,
2013-03-12 22:02:00,19.2,12.9,30.27,SW,233,1.0,4.0,76,0.00,,,0.00,Wunderground v.1.15,2013-03-13 03:02:00,
2013-03-12 22:08:00,19.2,13.2,30.27,WSW,238,1.0,4.0,77,0.00,,,0.00,Wunderground v.1.15,2013-03-13 03:08:00,
2013-03-12 22:13:00,19.2,13.5,30.27,SSW,209,2.0,4.0,78,0.00,,,0.00,Wunderground v.1.15,2013-03-13 03:13:00,
2013-03-12 22:19:00,19.2,13.5,30.28,SW,219,3.0,9.0,78,0.00,,,0.00,Wunderground v.1.15,2013-03-13 03:19:00,
2013-03-12 22:25:00,19.1,13.7,30.28,South,190,1.0,7.0,79,0.00,,,0.00,Wunderground v.1.15,2013-03-13 03:25:00,
2013-03-12 22:30:00,18.8,13.7,30.28,South,187,1.0,1.0,80,0.00,,,0.00,Wunderground v.1.15,2013-03-13 03:30:00,
2013-03-12 22:36:00,18.7,13.6,30.28,South,179,1.0,1.0,80,0.00,,,0.00,Wunderground v.1.15,2013-03-13 03:36:00,
2013-03-12 22:41:00,18.6,13.7,30.28,SSW,197,1.0,2.0,81,0.00,,,0.00,Wunderground v.1.15,2013-03-13 03:41:00,
2013-03-12 22:47:00,18.3,13.4,30.28,SW,216,1.0,3.0,81,0.00,,,0.00,Wunderground v.1.15,2013-03-13 03:47:00,
2013-03-12 22:52:00,18.2,13.6,30.28,SW,216,1.0,3.0,82,0.00,,,0.00,Wunderground v.1.15,2013-03-13 03:52:00,
2013-03-12 22:57:00,18.2,13.6,30.28,SSW,192,2.0,3.0,82,0.00,,,0.00,Wunderground v.1.15,2013-03-13 03:57:00,
2013-03-12 23:00:00,18.2,13.6,30.28,SW,227,2.0,2.0,82,0.00,,,0.00,Wunderground v.1.15,2013-03-13 04:00:00,
2013-03-12 23:01:00,18.2,13.6,30.28,SW,219,2.0,2.0,82,0.00,,,0.00,Wunderground v.1.15,2013-03-13 04:01:00,
2013-03-12 23:03:00,18.1,13.5,30.29,WSW,239,2.0,2.0,82,0.00,,,0.00,Wunderground v.1.15,2013-03-13 04:03:00,
2013-03-12 23:04:00,18.1,13.5,30.29,SSW,210,2.0,2.0,82,0.00,,,0.00,Wunderground v.1.15,2013-03-13 04:04:00,
2013-03-12 23:10:00,17.8,13.5,30.29,WSW,256,1.0,2.0,83,0.00,,,0.00,Wunderground v.1.15,2013-03-13 04:10:00,
2013-03-12 23:16:00,17.7,13.4,30.29,SSW,208,1.0,3.0,83,0.00,,,0.00,Wunderground v.1.15,2013-03-13 04:16:00,
2013-03-12 23:22:00,17.6,13.3,30.29,SW,225,1.0,6.0,83,0.00,,,0.00,Wunderground v.1.15,2013-03-13 04:22:00,
2013-03-12 23:27:00,17.5,13.5,30.29,SW,236,1.0,6.0,84,0.00,,,0.00,Wunderground v.1.15,2013-03-13 04:27:00,
2013-03-12 23:33:00,17.4,13.4,30.29,WSW,241,2.0,3.0,84,0.00,,,0.00,Wunderground v.1.15,2013-03-13 04:33:00,
2013-03-12 23:38:00,17.3,13.3,30.29,SW,220,1.0,3.0,84,0.00,,,0.00,Wunderground v.1.15,2013-03-13 04:38:00,
2013-03-12 23:44:00,17.0,13.0,30.29,SW,227,1.0,2.0,84,0.00,,,0.00,Wunderground v.1.15,2013-03-13 04:44:00,
2013-03-12 23:49:00,16.9,13.2,30.30,SW,234,1.0,3.0,85,0.00,,,0.00,Wunderground v.1.15,2013-03-13 04:49:00,
2013-03-12 23:55:00,16.6,12.9,30.30,SSW,212,1.0,2.0,85,0.00,,,0.00,Wunderground v.1.15,2013-03-13 04:55:00,